sat.trackr.live / text

‹ back to catalog

FLOCK 4G-17

NORAD 62681 · 2025-009CA

PAYLOAD ACTIVE UNKNOWN

§ Identity

Operator
Country
US
Launch date
2025-01-14
Launch site
AFWTR
Launch vehicle
Mass (kg)
RCS (m²)

Purposes: earth_obs

External: N2YO · Heavens-Above · Gunter

§ Orbital elements

Epoch: 2026-05-24T18:34:20.670240Z

Period
94.18 min
Inclination
97.3926°
Eccentricity
0.0005796
Mean motion
15.28995115 rev/d
Perigee alt
474.8 km
Apogee alt
482.8 km
Semi-major
6,857.0 km
B*
3.4778e-4
RAAN
226.2884°
Arg perigee
69.8875°
Mean anomaly
290.2988°
Rev number
13,297

§ Raw data

FLOCK 4G-171 62681U 25009CA  26144.77385035  .00009725  00000+0  34778-3 0  99982 62681  97.3926 226.2884 0005796  69.8875 290.2988 15.28995115132979

JSON: /api/v1/satellites/62681 · /tle

For live sub-satellite position, see the globe view (requires WebGL).

§ Visibility from observer

Set your observer location to see the next 7 days of passes ≥ 10°. The values pass through the URL so the page stays shareable.

No JS? Fill the form by hand. The geolocation button needs JavaScript.